User: anonymous   Login
Location: Bittelbronn
(48.4454°N, 8.5870°E)
Time: 00:11:52
(UTC+00:00)
Language:

Cosmos 1190 Rocket - Orbit

View from above orbital plane
View from above orbital plane
View from above satellite
View from above satellite

Ground track
Ground track

The orbit data is extracted from the following two-line orbital elements,

1 11870U 80056B   24204.21726981  .00000692  00000-0  23842-3 0  9993
2 11870  74.0534 125.9163 0015889 158.1282 202.0554 14.37719855283299
Epoch (UTC): 22 July 2024 05:12:52
Eccentricity: 0.0015889
inclination: 74.0534°
perigee height: 754 km
apogee height: 777 km
right ascension of ascending node: 125.9163°
argument of perigee: 158.1282°
revolutions per day: 14.37719855
mean anomaly at epoch: 202.0554°
orbit number at epoch: 28329

The dashed part of the orbit path shows where the satellite is in the earth's shadow,  

DLR